CW9927 Weather Reports


time (UTC)temp
C
wind
direction
speed
KPH
gust
KPH
rain 1hr
cm
rain 24hr
cm
rain mn
cm
humidity
%
barometer
mb
20260903074116 12 0.0 0.0 0.00 0.00 0.00 86 1017.4
20260903073117 13 0.0 0.0 0.00 0.00 0.00 87 1017.3
20260903072116 13 0.0 0.0 0.00 0.00 0.00 86 1017.4
20260903071116 13 0.0 0.0 0.00 0.00 0.00 86 1017.3
20260903065137 13 0.0 0.0 0.00 0.00 0.00 86 1017.3
20260903064137 13 0.0 0.0 0.00 0.00 0.00 86 1017.3
20260903063117 13 0.0 0.0 0.00 0.00 0.00 86 1017.4
20260903062117 14 0.0 0.0 0.00 0.00 0.00 85 1017.4
20260903061117 14 0.0 0.0 0.00 0.00 0.00 85 1017.4
20260903060117 14 0.0 0.0 0.00 0.00 0.00 85 1017.5
20260903055118 14 0.0 0.0 0.00 0.00 0.00 84 1017.5
20260903054117 15 0.0 0.0 0.00 0.00 0.00 84 1017.6
20260903053117 15 0.0 0.0 0.00 0.00 0.00 83 1017.6
20260903052119 15 0.0 0.0 0.00 0.00 0.00 83 1017.6
20260903051139 15 0.0 0.0 0.00 0.00 0.00 82 1017.6
20260903050138 15 0.0 0.0 0.00 0.00 0.00 82 1017.7
20260903045117 15 0.0 0.0 0.00 0.00 0.00 81 1017.6
20260903044117 15 0.0 0.0 0.00 0.00 0.00 80 1017.4
20260903043118 15 0.0 0.0 0.00 0.00 0.00 79 1017.4
20260903042117 15 0.0 0.0 0.00 0.00 0.00 77 1017.3
20260903041138 16 0.0 0.0 0.00 0.00 0.00 77 1017.2
20260903040117 16 0.0 0.0 0.00 0.00 0.00 77 1017.2
20260903035118 16 0.0 0.0 0.00 0.00 0.00 77 1016.9
20260903034118 16 0.0 0.0 0.00 0.00 0.00 76 1016.8
20260903033117 16 0.0 0.0 0.00 0.00 0.00 76 1016.9
20260903032117 17 0.0 0.0 0.00 0.00 0.00 76 1016.7
20260903031118 17 0.0 0.0 0.00 0.00 0.00 75 1016.6
20260903030118 17 0.0 0.0 0.00 0.00 0.00 75 1016.5
20260903025119 17 0.0 0.0 0.00 0.00 0.00 74 1016.3
20260903024117 18 0.0 0.0 0.00 0.00 0.00 73 1016.4
20260903023117 18 0.0 0.0 0.00 0.00 0.00 72 1016.4
20260903022117 19 0.0 0.0 0.00 0.00 0.00 71 1016.4
20260903021117 20 0.0 0.0 0.00 0.00 0.00 70 1016.4
20260903020117 20 0.0 0.0 0.00 0.00 0.00 69 1016.3
20260903015115 20 0.0 0.0 0.00 0.00 0.00 69 1016.5
20260903014117 21 0.0 0.0 0.00 0.00 0.00 68 1016.6
20260903013117 21 0.0 0.0 0.00 0.00 0.00 67 1016.6
20260903012117 21 0.0 0.0 0.00 0.00 0.00 67 1016.5
20260903011117 21 0.0 0.0 0.00 0.00 0.00 66 1016.6
20260903010240 22 0.0 0.0 0.00 0.00 0.00 66 1016.7
20260903005117 22 0.0 0.0 0.00 0.00 0.00 65 1016.7
20260903004117 22 0.0 0.0 0.00 0.00 0.00 63 1016.6
20260903003117 22 0.0 3.2 0.00 0.00 0.00 62 1016.6
20260903002117 23 270 9.7 19.3 0.00 0.00 0.00 61 1016.4
20260903001117 23 248 4.8 12.9 0.00 0.00 0.00 60 1016.4
20260903000117 23 0.0 0.0 0.00 0.00 0.00 60 1016.4
20260902235117 23 248 11.3 19.3 0.00 0.00 0.00 57 1016.4
20260902234117 23 0.0 0.0 0.00 0.00 0.00 58 1016.4
20260902233117 24 0.0 0.0 0.00 0.00 0.00 57 1016.5
20260902232137 25 248 3.2 8.0 0.00 0.00 0.00 54 1016.5
20260902231117 25 0.0 0.0 0.00 0.00 0.00 52 1016.6
20260902230117 25 0.0 0.0 0.00 0.00 0.00 53 1016.7
20260902225137 25 0.0 0.0 0.00 0.00 0.00 53 1016.8
20260902224158 25 0.0 0.0 0.00 0.00 0.00 52 1016.9
20260902223137 25 0.0 0.0 0.00 0.00 0.00 51 1017.0
20260902222116 25 0.0 0.0 0.00 0.00 0.00 52 1017.0
20260902221138 25 0.0 0.0 0.00 0.00 0.00 53 1017.1
20260902220118 25 0.0 0.0 0.00 0.00 0.00 54 1017.1
20260902215116 25 0.0 0.0 0.00 0.00 0.00 55 1017.2
20260902214116 25 0.0 0.0 0.00 0.00 0.00 54 1017.3
20260902213116 25 0.0 1.6 0.00 0.00 0.00 54 1017.5
20260902212117 25 0.0 0.0 0.00 0.00 0.00 55 1017.5
20260902211136 25 0.0 0.0 0.00 0.00 0.00 54 1017.7
20260902210116 24 0.0 1.6 0.00 0.00 0.00 57 1017.6
20260902205157 24 0.0 0.0 0.00 0.00 0.00 55 1017.8
20260902204116 25 0.0 0.0 0.00 0.00 0.00 54 1017.8
20260902203157 24 0.0 0.0 0.00 0.00 0.00 57 1017.9
20260902202116 24 0.0 0.0 0.00 0.00 0.00 56 1017.9
20260902201137 24 0.0 0.0 0.00 0.00 0.00 57 1017.9
20260902200116 23 0.0 0.0 0.00 0.00 0.00 57 1018.1
20260902195116 23 0.0 0.0 0.00 0.00 0.00 58 1018.2
20260902194117 24 0.0 0.0 0.00 0.00 0.00 58 1018.1
20260902193116 23 0.0 0.0 0.00 0.00 0.00 58 1018.3
20260902192136 23 0.0 0.0 0.00 0.00 0.00 60 1018.2
20260902191136 23 0.0 0.0 0.00 0.00 0.00 59 1018.3
20260902185116 22 0.0 0.0 0.00 0.00 0.00 61 1018.4
20260902184116 22 0.0 0.0 0.00 0.00 0.00 62 1018.5
20260902183116 21 0.0 0.0 0.00 0.00 0.00 62 1018.5
20260902182116 21 0.0 0.0 0.00 0.00 0.00 63 1018.7
20260902181117 21 0.0 0.0 0.00 0.00 0.00 62 1018.8
20260902180157 21 0.0 0.0 0.00 0.00 0.00 64 1018.8
20260902175116 21 0.0 0.0 0.00 0.00 0.00 64 1018.9
20260902174116 20 0.0 0.0 0.00 0.00 0.00 65 1018.9
20260902173116 20 0.0 0.0 0.00 0.00 0.00 66 1018.8
20260902172116 20 0.0 0.0 0.00 0.00 0.00 67 1018.8
20260902171136 19 0.0 0.0 0.00 0.00 0.00 67 1018.8
20260902170116 19 0.0 0.0 0.00 0.00 0.00 67 1018.9
20260902165116 19 0.0 0.0 0.00 0.00 0.00 68 1018.9
20260902164116 18 0.0 0.0 0.00 0.00 0.00 71 1019.0
20260902163116 18 0.0 0.0 0.00 0.00 0.00 71 1019.0
20260902162138 17 0.0 0.0 0.00 0.00 0.00 77 1018.8
20260902161116 16 0.0 0.0 0.00 0.00 0.00 81 1018.8
20260902160116 15 0.0 0.0 0.00 0.00 0.00 85 1018.8
20260902155116 14 0.0 0.0 0.00 0.00 0.00 85 1018.7
20260902154116 14 0.0 0.0 0.00 0.00 0.00 89 1018.7
20260902153139 13 0.0 0.0 0.00 0.00 0.00 91 1018.7
20260902152118 12 0.0 0.0 0.00 0.00 0.00 91 1018.7
20260902151118 12 0.0 0.0 0.00 0.00 0.00 91 1018.8
20260902150116 13 0.0 0.0 0.00 0.00 0.00 92 1018.7
20260902145116 12 0.0 0.0 0.00 0.00 0.00 93 1018.6
20260902144136 11 0.0 0.0 0.00 0.00 0.00 93 1018.6
20260902143116 10 0.0 0.0 0.00 0.00 0.00 93 1018.3
20260902142120 9 0.0 0.0 0.00 0.00 0.00 91 1018.2
20260902141119 9 0.0 0.0 0.00 0.00 0.00 91 1018.1
20260902140116 9 0.0 0.0 0.00 0.00 0.00 91 1018.1
20260902135116 9 0.0 0.0 0.00 0.00 0.00 91 1018.1
20260902134116 9 0.0 0.0 0.00 0.00 0.00 91 1018.1
20260902133116 9 0.0 0.0 0.00 0.00 0.00 91 1018.1
20260902132137 9 0.0 0.0 0.00 0.00 0.00 91 1017.9
20260902131116 9 0.0 0.0 0.00 0.00 0.00 90 1017.8
20260902125316 9 0.0 0.0 0.00 0.00 0.00 90 1017.8
20260902124318 10 0.0 0.0 0.00 0.00 0.00 90 1017.8
20260902123318 10 0.0 0.0 0.00 0.00 0.00 90 1017.7
20260902122316 10 0.0 0.0 0.00 0.00 0.00 91 1017.7
20260902121316 9 0.0 0.0 0.00 0.00 0.00 90 1017.6
20260902120316 9 0.0 0.0 0.00 0.00 0.00 90 1017.8
20260902115316 9 0.0 0.0 0.00 0.00 0.00 89 1017.8
20260902114316 9 0.0 0.0 0.00 0.00 0.00 89 1017.9
20260902113336 9 0.0 0.0 0.00 0.00 0.00 89 1017.8
20260902112316 9 0.0 0.0 0.00 0.00 0.00 89 1017.9
20260902111316 9 0.0 0.0 0.00 0.00 0.00 89 1017.9
20260902110316 10 0.0 0.0 0.00 0.00 0.00 89 1017.9
20260902105316 10 0.0 0.0 0.00 0.00 0.00 89 1017.9
20260902104316 10 0.0 0.0 0.00 0.00 0.00 89 1017.9
20260902103336 10 0.0 0.0 0.00 0.00 0.00 89 1017.9
20260902102316 10 0.0 0.0 0.00 0.00 0.00 89 1017.9
20260902101316 10 0.0 0.0 0.00 0.00 0.00 89 1018.0
20260902100316 10 0.0 0.0 0.00 0.00 0.00 89 1018.0
20260902095316 11 0.0 0.0 0.00 0.00 0.00 89 1017.8
20260902094316 11 0.0 0.0 0.00 0.00 0.00 89 1017.8
20260902093336 11 0.0 0.0 0.00 0.00 0.00 89 1017.8
20260902092316 11 0.0 0.0 0.00 0.00 0.00 88 1017.7
20260902091336 10 0.0 0.0 0.00 0.00 0.00 88 1017.7
20260902090316 11 0.0 0.0 0.00 0.00 0.00 88 1017.7
20260902085317 11 0.0 0.0 0.00 0.00 0.00 87 1017.8
20260902084316 11 0.0 0.0 0.00 0.00 0.00 87 1017.6
20260902083338 11 0.0 0.0 0.00 0.00 0.00 88 1017.7
20260902082336 11 0.0 0.0 0.00 0.00 0.00 88 1017.8
20260902081316 11 0.0 0.0 0.00 0.00 0.00 87 1017.8
20260902080316 11 0.0 0.0 0.00 0.00 0.00 87 1017.9
20260902075316 12 0.0 0.0 0.00 0.00 0.00 87 1017.9